Weather in Romakhovo

Russia / Belgorod Oblast     50°22′07″N   38°32′46″E
temp.,
°C
wind,
m/s
gust,
m/s
humid.,
%
clouds,
%
prec.,
mm/h
press.,
hPa
HPBL,
m
24 october, sun
sun2400:00+6w37665 0.0 1018146
03:00+3w37745 0.0 1019145
06:00+2w35807 0.0 102095
09:00+4w476794 0.0 1021328
12:00+8wnw684829 0.0 10211405
15:00+10wnw564186 0.0 10201702
18:00+6wnw485794 0.0 1021147
21:00+4nw49676 0.0 1023458
25 october, mon
mon2500:00+4nw597697 0.0 1023636
03:00+1nnw510825 0.0 1025422
06:000nnw410875 0.0 1028385
09:00+1n58735 0.0 1030505
12:00+5n564145 0.0 10311093
15:00+6n45357 0.0 10311238
18:00+2n22475 0.0 103219
21:00+1nnw11545 0.0 103310
26 october, tue
tue2600:000w11580 0.0 103410
03:00−1wsw22610 0.0 103411
06:00−1wsw22665 0.0 103412
09:00+2wsw23545 0.0 1034158
12:00+7sw44385 0.0 1033689
15:00+9wsw45315 0.0 1031864
18:00+4sw33415 0.0 103117
21:00+3ssw33445 0.0 103139
27 october, wed
wed2700:00+2ssw33460 0.0 103142
03:00+1ssw34460 0.0 103047
06:000ssw34470 0.0 103047
09:00+3ssw36380 0.0 1029197
12:00+9sw57250 0.0 1027692
15:00+10sw56210 0.0 1025942
18:00+5sw333166 0.0 102524
21:00+4sw3334100 0.0 102429
28 october, thu
thu2800:00+4w2238100 0.0 102422
03:00+2wnw22452 0.0 102415
06:00+1nw22716 0.0 102523
09:00+5nnw24735 0.0 1026178
12:00+10nw34575 0.0 1025819
15:00+10wnw34537 0.0 10241105
18:00+6wnw3368100 0.0 102528
21:00+6wsw3569100 0.0 102488